Wetterdaten: Samstag, 16.01.2010
Datum Zeit Temp. A. Feuchte A. Luftdruck Regen Wind Richtung Richtung Sonnenschein UV Solar Windben
16.01.2010 00:00 0,2 C 87 % 1025,9 hPa 0,0 mm 2,0 km/h (1 Bft) SO 132 0 min 0 UV-I 0 W/m 11,3 km/h (2 Bft)
16.01.2010 00:10 0,1 C 87 % 1026,0 hPa 0,0 mm 1,8 km/h (1 Bft) O-SO 105 0 min 0 UV-I 0 W/m 6,4 km/h (2 Bft)
16.01.2010 00:20 0,1 C 87 % 1025,9 hPa 0,0 mm 2,8 km/h (1 Bft) SO 128 0 min 0 UV-I 0 W/m 9,7 km/h (2 Bft)
16.01.2010 00:30 0,0 C 87 % 1026,0 hPa 0,0 mm 4,8 km/h (1 Bft) O-SO 112 0 min 0 UV-I 0 W/m 11,3 km/h (2 Bft)
16.01.2010 00:40 -0,1 C 87 % 1025,8 hPa 0,0 mm 4,8 km/h (1 Bft) O-SO 112 0 min 0 UV-I 0 W/m 11,3 km/h (2 Bft)
16.01.2010 00:50 -0,1 C 87 % 1025,8 hPa 0,0 mm 4,8 km/h (1 Bft) O-SO 112 0 min 0 UV-I 0 W/m 11,3 km/h (2 Bft)
16.01.2010 01:00 -0,2 C 87 % 1025,7 hPa 0,0 mm 3,2 km/h (1 Bft) S 180 0 min 0 UV-I 0 W/m 11,3 km/h (2 Bft)
16.01.2010 01:10 -0,2 C 87 % 1025,5 hPa 0,0 mm 4,8 km/h (1 Bft) O-SO 112 0 min 0 UV-I 0 W/m 14,5 km/h (3 Bft)
16.01.2010 01:20 -0,2 C 87 % 1025,4 hPa 0,0 mm 4,8 km/h (1 Bft) SO 135 0 min 0 UV-I 0 W/m 11,3 km/h (2 Bft)
16.01.2010 01:30 -0,3 C 87 % 1025,4 hPa 0,0 mm 4,8 km/h (1 Bft) O-SO 112 0 min 0 UV-I 0 W/m 16,1 km/h (3 Bft)
16.01.2010 01:40 -0,3 C 87 % 1025,4 hPa 0,0 mm 4,8 km/h (1 Bft) O-SO 112 0 min 0 UV-I 0 W/m 16,1 km/h (3 Bft)
16.01.2010 01:50 -0,4 C 87 % 1025,3 hPa 0,0 mm 3,2 km/h (1 Bft) SO 135 0 min 0 UV-I 0 W/m 11,3 km/h (2 Bft)
16.01.2010 02:00 -0,4 C 87 % 1025,4 hPa 0,0 mm 3,2 km/h (1 Bft) O-SO 112 0 min 0 UV-I 0 W/m 11,3 km/h (2 Bft)
16.01.2010 02:10 -0,4 C 87 % 1025,4 hPa 0,0 mm 3,2 km/h (1 Bft) O-SO 112 0 min 0 UV-I 0 W/m 11,3 km/h (2 Bft)
16.01.2010 02:20 -0,5 C 87 % 1025,4 hPa 0,0 mm 3,2 km/h (1 Bft) O-SO 112 0 min 0 UV-I 0 W/m 17,7 km/h (3 Bft)
16.01.2010 02:30 -0,6 C 87 % 1025,3 hPa 0,0 mm 3,2 km/h (1 Bft) SO 135 0 min 0 UV-I 0 W/m 17,7 km/h (3 Bft)
16.01.2010 02:40 -0,6 C 87 % 1025,4 hPa 0,0 mm 3,2 km/h (1 Bft) SO 135 0 min 0 UV-I 0 W/m 20,9 km/h (4 Bft)
16.01.2010 02:50 -0,6 C 87 % 1025,2 hPa 0,0 mm 3,2 km/h (1 Bft) S-SO 157 0 min 0 UV-I 0 W/m 9,7 km/h (2 Bft)
16.01.2010 03:00 -0,7 C 87 % 1025,1 hPa 0,0 mm 3,2 km/h (1 Bft) O-SO 112 0 min 0 UV-I 0 W/m 11,3 km/h (2 Bft)
16.01.2010 03:10 -0,7 C 87 % 1025,0 hPa 0,0 mm 3,2 km/h (1 Bft) SO 135 0 min 0 UV-I 0 W/m 9,7 km/h (2 Bft)
16.01.2010 03:20 -0,7 C 87 % 1024,9 hPa 0,0 mm 4,8 km/h (1 Bft) SO 135 0 min 0 UV-I 0 W/m 17,7 km/h (3 Bft)
16.01.2010 03:30 -0,7 C 87 % 1024,7 hPa 0,0 mm 4,8 km/h (1 Bft) S 180 0 min 0 UV-I 0 W/m 14,5 km/h (3 Bft)
16.01.2010 03:40 -0,8 C 87 % 1024,6 hPa 0,0 mm 3,2 km/h (1 Bft) O-SO 112 0 min 0 UV-I 0 W/m 6,4 km/h (2 Bft)
16.01.2010 03:50 -0,8 C 87 % 1024,4 hPa 0,0 mm 4,8 km/h (1 Bft) SO 135 0 min 0 UV-I 0 W/m 19,3 km/h (3 Bft)
16.01.2010 04:00 -0,8 C 87 % 1024,2 hPa 0,0 mm 8,0 km/h (2 Bft) SO 135 0 min 0 UV-I 0 W/m 22,5 km/h (4 Bft)
16.01.2010 04:10 -0,9 C 87 % 1024,0 hPa 0,0 mm 4,8 km/h (1 Bft) O-SO 112 0 min 0 UV-I 0 W/m 12,9 km/h (3 Bft)
16.01.2010 04:20 -0,9 C 87 % 1024,1 hPa 0,0 mm 6,4 km/h (2 Bft) O 90 0 min 0 UV-I 0 W/m 17,7 km/h (3 Bft)
16.01.2010 04:30 -1,0 C 87 % 1024,0 hPa 0,0 mm 3,2 km/h (1 Bft) SO 135 0 min 0 UV-I 0 W/m 11,3 km/h (2 Bft)
16.01.2010 04:40 -1,0 C 87 % 1023,7 hPa 0,0 mm 4,8 km/h (1 Bft) O-SO 112 0 min 0 UV-I 0 W/m 17,7 km/h (3 Bft)
16.01.2010 04:50 -1,0 C 87 % 1023,7 hPa 0,0 mm 4,8 km/h (1 Bft) O-SO 112 0 min 0 UV-I 0 W/m 16,1 km/h (3 Bft)
16.01.2010 05:00 -1,0 C 88 % 1023,7 hPa 0,0 mm 3,2 km/h (1 Bft) O-SO 112 0 min 0 UV-I 0 W/m 8,0 km/h (2 Bft)
16.01.2010 05:10 -1,0 C 88 % 1023,6 hPa 0,0 mm 3,2 km/h (1 Bft) O-SO 112 0 min 0 UV-I 0 W/m 11,3 km/h (2 Bft)
16.01.2010 05:20 -1,0 C 88 % 1023,6 hPa 0,0 mm 3,2 km/h (1 Bft) SO 135 0 min 0 UV-I 0 W/m 9,7 km/h (2 Bft)
16.01.2010 05:30 -1,1 C 88 % 1023,6 hPa 0,0 mm 4,8 km/h (1 Bft) O-SO 112 0 min 0 UV-I 0 W/m 19,3 km/h (3 Bft)
16.01.2010 05:40 -1,1 C 88 % 1023,5 hPa 0,0 mm 6,4 km/h (2 Bft) O-SO 112 0 min 0 UV-I 0 W/m 17,7 km/h (3 Bft)
16.01.2010 05:50 -1,1 C 88 % 1023,5 hPa 0,0 mm 3,2 km/h (1 Bft) SO 135 0 min 0 UV-I 0 W/m 14,5 km/h (3 Bft)
16.01.2010 06:00 -1,1 C 88 % 1023,5 hPa 0,0 mm 4,8 km/h (1 Bft) O-SO 112 0 min 0 UV-I 0 W/m 16,1 km/h (3 Bft)
16.01.2010 06:10 -1,1 C 88 % 1023,5 hPa 0,0 mm 4,8 km/h (1 Bft) SO 135 0 min 0 UV-I 0 W/m 19,3 km/h (3 Bft)
16.01.2010 06:20 -1,2 C 87 % 1023,4 hPa 0,0 mm 8,0 km/h (2 Bft) O-SO 112 0 min 0 UV-I 0 W/m 22,5 km/h (4 Bft)
16.01.2010 06:30 -1,2 C 87 % 1023,3 hPa 0,0 mm 8,0 km/h (2 Bft) O-SO 112 0 min 0 UV-I 0 W/m 20,9 km/h (4 Bft)
16.01.2010 06:40 -1,3 C 87 % 1023,1 hPa 0,0 mm 8,0 km/h (2 Bft) SO 135 0 min 0 UV-I 0 W/m 20,9 km/h (4 Bft)
16.01.2010 06:50 -1,3 C 87 % 1023,0 hPa 0,0 mm 6,4 km/h (2 Bft) O-SO 112 0 min 0 UV-I 0 W/m 22,5 km/h (4 Bft)
16.01.2010 07:00 -1,4 C 87 % 1022,8 hPa 0,0 mm 3,2 km/h (1 Bft) O-SO 112 0 min 0 UV-I 0 W/m 11,3 km/h (2 Bft)
16.01.2010 07:10 -1,4 C 88 % 1022,8 hPa 0,0 mm 4,8 km/h (1 Bft) O-SO 112 0 min 0 UV-I 0 W/m 12,9 km/h (3 Bft)
16.01.2010 07:20 -1,4 C 87 % 1022,8 hPa 0,0 mm 6,4 km/h (2 Bft) S-SO 157 0 min 0 UV-I 0 W/m 16,1 km/h (3 Bft)
16.01.2010 07:30 -1,4 C 87 % 1022,7 hPa 0,0 mm 3,2 km/h (1 Bft) S-SO 157 0 min 0 UV-I 0 W/m 19,3 km/h (3 Bft)
16.01.2010 07:40 -1,5 C 87 % 1022,6 hPa 0,0 mm 6,4 km/h (2 Bft) O-SO 112 0 min 0 UV-I 0 W/m 20,9 km/h (4 Bft)
16.01.2010 07:50 -1,5 C 88 % 1022,5 hPa 0,0 mm 3,2 km/h (1 Bft) O-SO 112 0 min 0 UV-I 0 W/m 9,7 km/h (2 Bft)
16.01.2010 08:00 -1,6 C 88 % 1022,5 hPa 0,0 mm 5,9 km/h (2 Bft) O-SO 119 0 min 0 UV-I 0 W/m 9,7 km/h (2 Bft)
16.01.2010 08:10 -1,6 C 88 % 1022,4 hPa 0,0 mm 6,4 km/h (2 Bft) O-SO 112 0 min 0 UV-I 0 W/m 14,5 km/h (3 Bft)
16.01.2010 08:20 -1,6 C 88 % 1022,0 hPa 0,0 mm 9,7 km/h (2 Bft) O-SO 112 0 min 0 UV-I 0 W/m 25,7 km/h (4 Bft)
16.01.2010 08:30 -1,6 C 88 % 1022,0 hPa 0,0 mm 4,8 km/h (1 Bft) O-SO 112 0 min 0 UV-I 0 W/m 19,3 km/h (3 Bft)
16.01.2010 08:40 -1,7 C 88 % 1021,8 hPa 0,0 mm 4,8 km/h (1 Bft) O-SO 112 0 min 0 UV-I 0 W/m 11,3 km/h (2 Bft)
16.01.2010 08:50 -1,6 C 88 % 1021,7 hPa 0,0 mm 9,7 km/h (2 Bft) O-SO 112 0 min 0 UV-I 7 W/m 20,9 km/h (4 Bft)
16.01.2010 09:00 -1,7 C 88 % 1021,5 hPa 0,0 mm 8,0 km/h (2 Bft) O 90 0 min 0 UV-I 18 W/m 27,4 km/h (4 Bft)
16.01.2010 09:10 -1,7 C 88 % 1021,7 hPa 0,0 mm 8,0 km/h (2 Bft) O-SO 112 0 min 0 UV-I 25 W/m 19,3 km/h (3 Bft)
16.01.2010 09:20 -1,7 C 88 % 1021,7 hPa 0,0 mm 9,7 km/h (2 Bft) O-SO 112 0 min 0 UV-I 26 W/m 22,5 km/h (4 Bft)
16.01.2010 09:30 -1,6 C 88 % 1021,8 hPa 0,0 mm 6,4 km/h (2 Bft) O-SO 112 0 min 0 UV-I 33 W/m 19,3 km/h (3 Bft)
16.01.2010 09:40 -1,6 C 88 % 1021,6 hPa 0,0 mm 11,6 km/h (2 Bft) SO 137 0 min 0 UV-I 42 W/m 16,1 km/h (3 Bft)
16.01.2010 09:50 -1,5 C 88 % 1021,5 hPa 0,0 mm 6,9 km/h (2 Bft) O-SO 114 0 min 0 UV-I 45 W/m 22,5 km/h (4 Bft)
16.01.2010 10:00 -1,5 C 88 % 1021,4 hPa 0,0 mm 7,6 km/h (2 Bft) O-SO 106 0 min 0 UV-I 39 W/m 24,1 km/h (4 Bft)
16.01.2010 10:10 -1,4 C 88 % 1021,5 hPa 0,0 mm 4,6 km/h (1 Bft) SO 130 0 min 0 UV-I 40 W/m 16,1 km/h (3 Bft)
16.01.2010 10:20 -1,4 C 88 % 1021,5 hPa 0,0 mm 5,5 km/h (1 Bft) O 99 0 min 0 UV-I 42 W/m 12,9 km/h (3 Bft)
16.01.2010 10:30 -1,3 C 88 % 1021,2 hPa 0,0 mm 7,6 km/h (2 Bft) O-SO 107 0 min 0 UV-I 66 W/m 24,1 km/h (4 Bft)
16.01.2010 10:40 -1,3 C 88 % 1021,0 hPa 0,0 mm 8,8 km/h (2 Bft) O-SO 117 0 min 0 UV-I 82 W/m 24,1 km/h (4 Bft)
16.01.2010 10:50 -1,3 C 88 % 1020,9 hPa 0,0 mm 8,5 km/h (2 Bft) O-SO 109 0 min 0 UV-I 85 W/m 19,3 km/h (3 Bft)
16.01.2010 11:00 -1,2 C 88 % 1020,7 hPa 0,0 mm 7,9 km/h (2 Bft) O 99 0 min 0 UV-I 99 W/m 19,3 km/h (3 Bft)
16.01.2010 11:10 -1,2 C 88 % 1020,4 hPa 0,0 mm 6,4 km/h (2 Bft) S 188 0 min 1 UV-I 124 W/m 22,5 km/h (4 Bft)
16.01.2010 11:20 -1,1 C 87 % 1020,1 hPa 0,0 mm 8,6 km/h (2 Bft) S 178 0 min 1 UV-I 126 W/m 22,5 km/h (4 Bft)
16.01.2010 11:30 -1,1 C 87 % 1019,8 hPa 0,0 mm 9,5 km/h (2 Bft) O-SO 119 0 min 1 UV-I 127 W/m 22,5 km/h (4 Bft)
16.01.2010 11:40 -1,1 C 87 % 1019,7 hPa 0,0 mm 10,5 km/h (2 Bft) O-SO 109 0 min 1 UV-I 132 W/m 30,6 km/h (5 Bft)
16.01.2010 11:50 -0,8 C 86 % 1019,5 hPa 0,0 mm 7,9 km/h (2 Bft) SO 130 0 min 1 UV-I 147 W/m 25,7 km/h (4 Bft)
16.01.2010 12:00 -0,8 C 85 % 1019,1 hPa 0,0 mm 9,8 km/h (2 Bft) O-SO 107 10 min 1 UV-I 168 W/m 25,7 km/h (4 Bft)
16.01.2010 12:10 -0,8 C 85 % 1019,3 hPa 0,0 mm 10,3 km/h (2 Bft) O-SO 108 0 min 1 UV-I 155 W/m 25,7 km/h (4 Bft)
16.01.2010 12:20 -0,7 C 85 % 1019,1 hPa 0,0 mm 9,4 km/h (2 Bft) O 98 0 min 1 UV-I 162 W/m 20,9 km/h (4 Bft)
16.01.2010 12:30 -0,6 C 85 % 1019,0 hPa 0,0 mm 6,9 km/h (2 Bft) S-SO 157 10 min 1 UV-I 208 W/m 20,9 km/h (4 Bft)
16.01.2010 12:40 -0,5 C 84 % 1018,7 hPa 0,0 mm 8,0 km/h (2 Bft) O 81 10 min 1 UV-I 213 W/m 20,9 km/h (4 Bft)
16.01.2010 12:50 -0,4 C 84 % 1018,6 hPa 0,0 mm 7,0 km/h (2 Bft) O-NO 63 10 min 1 UV-I 202 W/m 20,9 km/h (4 Bft)
16.01.2010 13:00 -0,3 C 83 % 1018,5 hPa 0,0 mm 7,8 km/h (2 Bft) O 82 10 min 1 UV-I 233 W/m 20,9 km/h (4 Bft)
16.01.2010 13:10 -0,4 C 83 % 1018,5 hPa 0,0 mm 7,3 km/h (2 Bft) S-SO 167 10 min 1 UV-I 212 W/m 29,0 km/h (5 Bft)
16.01.2010 13:20 -0,3 C 83 % 1018,5 hPa 0,0 mm 7,8 km/h (2 Bft) SO 146 10 min 1 UV-I 202 W/m 20,9 km/h (4 Bft)
16.01.2010 13:30 -0,2 C 83 % 1018,3 hPa 0,0 mm 5,7 km/h (1 Bft) SO 133 10 min 1 UV-I 233 W/m 19,3 km/h (3 Bft)
16.01.2010 13:40 -0,2 C 83 % 1018,2 hPa 0,0 mm 4,4 km/h (1 Bft) SO 146 0 min 1 UV-I 126 W/m 17,7 km/h (3 Bft)
16.01.2010 13:50 -0,1 C 82 % 1017,9 hPa 0,0 mm 5,1 km/h (1 Bft) SO 130 0 min 1 UV-I 137 W/m 17,7 km/h (3 Bft)
16.01.2010 14:00 -0,1 C 82 % 1017,8 hPa 0,0 mm 5,0 km/h (1 Bft) O-NO 74 0 min 1 UV-I 132 W/m 17,7 km/h (3 Bft)
16.01.2010 14:10 0,1 C 82 % 1017,7 hPa 0,0 mm 5,2 km/h (1 Bft) O 101 0 min 1 UV-I 128 W/m 17,7 km/h (3 Bft)
16.01.2010 14:20 0,1 C 82 % 1017,5 hPa 0,0 mm 4,5 km/h (1 Bft) O 100 0 min 1 UV-I 100 W/m 9,7 km/h (2 Bft)
16.01.2010 14:30 0,1 C 82 % 1017,3 hPa 0,0 mm 5,8 km/h (2 Bft) O-SO 117 0 min 1 UV-I 105 W/m 19,3 km/h (3 Bft)
16.01.2010 14:40 0,0 C 82 % 1017,2 hPa 0,0 mm 5,5 km/h (1 Bft) O-SO 105 0 min 0 UV-I 99 W/m 17,7 km/h (3 Bft)
16.01.2010 14:50 -0,1 C 82 % 1017,2 hPa 0,0 mm 6,3 km/h (2 Bft) O-SO 119 0 min 0 UV-I 78 W/m 16,1 km/h (3 Bft)
16.01.2010 15:00 -0,2 C 82 % 1017,0 hPa 0,0 mm 7,1 km/h (2 Bft) O-SO 107 0 min 0 UV-I 64 W/m 24,1 km/h (4 Bft)
16.01.2010 15:10 -0,2 C 82 % 1016,8 hPa 0,0 mm 5,4 km/h (1 Bft) S-SO 160 0 min 0 UV-I 51 W/m 17,7 km/h (3 Bft)
16.01.2010 15:20 -0,3 C 82 % 1016,5 hPa 0,0 mm 4,9 km/h (1 Bft) O-SO 106 0 min 0 UV-I 46 W/m 19,3 km/h (3 Bft)
16.01.2010 15:30 -0,3 C 82 % 1016,3 hPa 0,0 mm 7,4 km/h (2 Bft) O-SO 107 0 min 0 UV-I 40 W/m 17,7 km/h (3 Bft)
16.01.2010 15:40 -0,4 C 82 % 1016,2 hPa 0,0 mm 8,0 km/h (2 Bft) O-SO 112 0 min 0 UV-I 44 W/m 22,5 km/h (4 Bft)
16.01.2010 15:50 -0,4 C 83 % 1015,9 hPa 0,0 mm 6,4 km/h (2 Bft) O 90 0 min 0 UV-I 40 W/m 24,1 km/h (4 Bft)
16.01.2010 16:00 -0,4 C 83 % 1015,7 hPa 0,0 mm 9,7 km/h (2 Bft) O-SO 112 0 min 0 UV-I 37 W/m 20,9 km/h (4 Bft)
16.01.2010 16:10 -0,5 C 83 % 1015,4 hPa 0,0 mm 9,7 km/h (2 Bft) O-SO 112 0 min 0 UV-I 28 W/m 20,9 km/h (4 Bft)
16.01.2010 16:20 -0,6 C 83 % 1015,3 hPa 0,0 mm 9,7 km/h (2 Bft) O-SO 112 10 min 0 UV-I 25 W/m 20,9 km/h (4 Bft)
16.01.2010 16:30 -0,6 C 83 % 1014,9 hPa 0,0 mm 8,0 km/h (2 Bft) O 90 10 min 0 UV-I 12 W/m 24,1 km/h (4 Bft)
16.01.2010 16:40 -0,7 C 83 % 1014,8 hPa 0,0 mm 8,0 km/h (2 Bft) O-SO 112 0 min 0 UV-I 5 W/m 19,3 km/h (3 Bft)
16.01.2010 16:50 -0,8 C 83 % 1014,7 hPa 0,0 mm 8,0 km/h (2 Bft) O-SO 112 0 min 0 UV-I 0 W/m 17,7 km/h (3 Bft)
16.01.2010 17:00 -0,8 C 83 % 1014,7 hPa 0,0 mm 4,8 km/h (1 Bft) O 90 0 min 0 UV-I 0 W/m 17,7 km/h (3 Bft)
16.01.2010 17:10 -0,8 C 83 % 1014,4 hPa 0,0 mm 8,0 km/h (2 Bft) O 90 0 min 0 UV-I 0 W/m 24,1 km/h (4 Bft)
16.01.2010 17:20 -0,8 C 84 % 1014,0 hPa 0,0 mm 6,4 km/h (2 Bft) O-SO 112 0 min 0 UV-I 0 W/m 17,7 km/h (3 Bft)
16.01.2010 17:30 -0,8 C 84 % 1013,7 hPa 0,0 mm 8,0 km/h (2 Bft) O 90 0 min 0 UV-I 0 W/m 20,9 km/h (4 Bft)
16.01.2010 17:40 -0,9 C 84 % 1013,7 hPa 0,0 mm 8,0 km/h (2 Bft) O-SO 112 0 min 0 UV-I 0 W/m 20,9 km/h (4 Bft)
16.01.2010 17:50 -0,9 C 84 % 1013,8 hPa 0,0 mm 8,0 km/h (2 Bft) O-SO 112 0 min 0 UV-I 0 W/m 20,9 km/h (4 Bft)
16.01.2010 18:00 -0,8 C 84 % 1013,7 hPa 0,0 mm 6,4 km/h (2 Bft) O-SO 112 0 min 0 UV-I 0 W/m 17,7 km/h (3 Bft)
16.01.2010 18:10 -0,8 C 84 % 1013,3 hPa 0,0 mm 9,7 km/h (2 Bft) O 90 0 min 0 UV-I 0 W/m 22,5 km/h (4 Bft)
16.01.2010 18:20 -0,8 C 84 % 1013,4 hPa 0,0 mm 8,0 km/h (2 Bft) O 90 0 min 0 UV-I 0 W/m 19,3 km/h (3 Bft)
16.01.2010 18:30 -0,8 C 83 % 1013,5 hPa 0,0 mm 8,0 km/h (2 Bft) O 90 0 min 0 UV-I 0 W/m 20,9 km/h (4 Bft)
16.01.2010 18:40 -0,8 C 83 % 1013,3 hPa 0,0 mm 4,8 km/h (1 Bft) O-SO 112 0 min 0 UV-I 0 W/m 14,5 km/h (3 Bft)
16.01.2010 18:50 -0,8 C 83 % 1013,0 hPa 0,0 mm 6,4 km/h (2 Bft) O 90 0 min 0 UV-I 0 W/m 19,3 km/h (3 Bft)
16.01.2010 19:00 -0,8 C 83 % 1013,1 hPa 0,0 mm 4,8 km/h (1 Bft) O-SO 112 0 min 0 UV-I 0 W/m 17,7 km/h (3 Bft)
16.01.2010 19:10 -0,8 C 83 % 1012,9 hPa 0,0 mm 4,8 km/h (1 Bft) SO 135 0 min 0 UV-I 0 W/m 16,1 km/h (3 Bft)
16.01.2010 19:20 -0,8 C 83 % 1012,9 hPa 0,0 mm 6,4 km/h (2 Bft) O-SO 112 0 min 0 UV-I 0 W/m 17,7 km/h (3 Bft)
16.01.2010 19:30 -0,7 C 83 % 1012,8 hPa 0,0 mm 4,8 km/h (1 Bft) O-SO 112 0 min 0 UV-I 0 W/m 19,3 km/h (3 Bft)
16.01.2010 19:40 -0,7 C 83 % 1012,5 hPa 0,0 mm 9,7 km/h (2 Bft) SO 135 0 min 0 UV-I 0 W/m 25,7 km/h (4 Bft)
16.01.2010 19:50 -0,7 C 83 % 1012,0 hPa 0,0 mm 9,7 km/h (2 Bft) O-SO 112 0 min 0 UV-I 0 W/m 27,4 km/h (4 Bft)
16.01.2010 20:00 -0,6 C 83 % 1012,4 hPa 0,0 mm 4,8 km/h (1 Bft) O-SO 112 0 min 0 UV-I 0 W/m 25,7 km/h (4 Bft)
16.01.2010 20:10 -0,6 C 83 % 1012,3 hPa 0,0 mm 4,8 km/h (1 Bft) O-SO 112 0 min 0 UV-I 0 W/m 27,4 km/h (4 Bft)
16.01.2010 20:20 -0,5 C 83 % 1011,9 hPa 0,0 mm 8,0 km/h (2 Bft) O-SO 112 0 min 0 UV-I 0 W/m 19,3 km/h (3 Bft)
16.01.2010 20:30 -0,4 C 82 % 1011,5 hPa 0,0 mm 6,4 km/h (2 Bft) SO 135 0 min 0 UV-I 0 W/m 24,1 km/h (4 Bft)
16.01.2010 20:40 -0,4 C 82 % 1011,9 hPa 0,0 mm 4,8 km/h (1 Bft) SO 135 0 min 0 UV-I 0 W/m 14,5 km/h (3 Bft)
16.01.2010 20:50 -0,4 C 82 % 1011,9 hPa 0,0 mm 4,8 km/h (1 Bft) S-SO 157 0 min 0 UV-I 0 W/m 14,5 km/h (3 Bft)
16.01.2010 21:00 -0,3 C 82 % 1011,8 hPa 0,0 mm 8,0 km/h (2 Bft) SO 135 0 min 0 UV-I 0 W/m 24,1 km/h (4 Bft)
16.01.2010 21:10 -0,3 C 82 % 1011,8 hPa 0,0 mm 6,4 km/h (2 Bft) S 180 0 min 0 UV-I 0 W/m 24,1 km/h (4 Bft)
16.01.2010 21:20 -0,3 C 82 % 1011,3 hPa 0,0 mm 6,4 km/h (2 Bft) O-SO 112 0 min 0 UV-I 0 W/m 17,7 km/h (3 Bft)
16.01.2010 21:30 -0,3 C 82 % 1011,4 hPa 0,0 mm 8,0 km/h (2 Bft) O-SO 112 0 min 0 UV-I 0 W/m 24,1 km/h (4 Bft)
16.01.2010 21:40 -0,3 C 82 % 1011,0 hPa 0,0 mm 6,4 km/h (2 Bft) SO 135 0 min 0 UV-I 0 W/m 20,9 km/h (4 Bft)
16.01.2010 21:50 -0,3 C 82 % 1011,1 hPa 0,0 mm 6,4 km/h (2 Bft) SO 135 0 min 0 UV-I 0 W/m 22,5 km/h (4 Bft)
16.01.2010 22:00 -0,3 C 82 % 1011,0 hPa 0,0 mm 6,4 km/h (2 Bft) SO 135 0 min 0 UV-I 0 W/m 20,9 km/h (4 Bft)
16.01.2010 22:10 -0,3 C 82 % 1010,4 hPa 0,0 mm 8,0 km/h (2 Bft) O-SO 112 0 min 0 UV-I 0 W/m 25,7 km/h (4 Bft)
16.01.2010 22:20 -0,3 C 82 % 1010,5 hPa 0,0 mm 8,0 km/h (2 Bft) O-SO 112 0 min 0 UV-I 0 W/m 20,9 km/h (4 Bft)
16.01.2010 22:30 -0,3 C 82 % 1010,4 hPa 0,0 mm 6,4 km/h (2 Bft) SO 135 0 min 0 UV-I 0 W/m 24,1 km/h (4 Bft)
16.01.2010 22:40 -0,3 C 82 % 1010,1 hPa 0,0 mm 4,8 km/h (1 Bft) O-SO 112 0 min 0 UV-I 0 W/m 25,7 km/h (4 Bft)
16.01.2010 22:50 -0,3 C 82 % 1010,1 hPa 0,0 mm 6,4 km/h (2 Bft) O-SO 112 0 min 0 UV-I 0 W/m 17,7 km/h (3 Bft)
16.01.2010 23:00 -0,3 C 83 % 1010,2 hPa 0,0 mm 8,0 km/h (2 Bft) O-SO 112 0 min 0 UV-I 0 W/m 19,3 km/h (3 Bft)
16.01.2010 23:10 -0,3 C 83 % 1010,1 hPa 0,0 mm 4,8 km/h (1 Bft) O-SO 112 0 min 0 UV-I 0 W/m 19,3 km/h (3 Bft)
16.01.2010 23:20 -0,2 C 83 % 1010,0 hPa 0,0 mm 6,4 km/h (2 Bft) O-SO 112 0 min 0 UV-I 0 W/m 19,3 km/h (3 Bft)
16.01.2010 23:30 -0,2 C 83 % 1010,0 hPa 0,0 mm 4,8 km/h (1 Bft) O-SO 112 0 min 0 UV-I 0 W/m 14,5 km/h (3 Bft)
16.01.2010 23:40 -0,1 C 83 % 1009,9 hPa 0,0 mm 4,8 km/h (1 Bft) O-SO 112 0 min 0 UV-I 0 W/m 17,7 km/h (3 Bft)
16.01.2010 23:50 -0,1 C 83 % 1009,8 hPa 0,0 mm 3,2 km/h (1 Bft) SO 135 0 min 0 UV-I 0 W/m 14,5 km/h (3 Bft)
_ Min-Zeit 08:30 13:50 23:50 - 00:10 - - - - - 00:10
Minimum _ -1,7 C 82 % 1009,8 hPa - 1,8 km/h (1 Bft) - - - - - 6,4 km/h (2 Bft)
_ Max-Zeit 00:00 05:00 00:10 00:00 09:40 - - 12:00 12:30 13:00 11:40
Maximum _ 0,2 C 88 % 1026,0 hPa 0,0 mm 11,6 km/h
SO (2 Bft)
- - 10 min 1 UV-I 233 W/m 30,6 km/h
O-SO (5 Bft)
Durchschnitt _ -0,7 C 85 % 1018,8 hPa #0,0 mm 6,2 km/h (2 Bft) O-SO - #1:40 h 1 UV-I 96 W/m 18,5 km/h (3 Bft)